SES-11 (ECHOSTAR 105) (42967 NORAD) Tracking and Keplerian Element Data

This shows tracking and keplerian element data for the satellite.

Feedback or suggestion? Click here.




ElementValue
Catalog42967
NameSES-11 (ECHOSTAR 105)
Epoch Orbit407
Epoch Day323.13004475
Epoch Year2018
RAAN111.815
Inclination0.0245
Eccentricity0.0002728
Argument of Perigee144.2668
Mean Anonmoly103.9229
Mean Motion1.00272474
Decay Rate-8E-07
L11 42967U 17063A 18323.13004475 -.00000080 00000-0 00000+0 0 9994
L22 42967 0.0245 111.8150 0002728 144.2668 103.9229 1.00272474 4072

Live tracking and technical data element details for SES-11 (ECHOSTAR 105) (NORAD 42967). SES-11 (ECHOSTAR 105) can be tracked NOW for your location showing map with azimuth and elevation plus other details from your city location.

Track the satellite on the map from your city or location and see movement details for azimuth, elevation, latitude, longitude, range, height, and movement on the map or in text.







IsCatalogInMostPopularTable: catalog: 42967, numindb: 164
Update: records affected: 1



GetName: 42967 SES-11 (ECHOSTAR 105)

Hit Count: updated at: Wed, 21 Nov 2018 06:20:58 GMT